This is the latest recevied weather packets stored in our database for station/object K6GMW. If no packets are shown the sender has not sent any weather packets the latest 10 day(s).
| Time | Temp. | Humidity | Pressure | Rain* | Wind** | Luminosity | Snow |
|---|---|---|---|---|---|---|---|
| 1777505559 | 18.33° C | 97% | 1012.9 hPa | 0 mm | - | 28 W/m² | - |
| 1777505256 | 18.33° C | 97% | 1013.2 hPa | 0 mm | - | 59 W/m² | - |
| 1777504952 | 18.33° C | 97% | 1013.3 hPa | 0 mm | - | 53 W/m² | - |
| 1777504650 | 18.33° C | 97% | 1013.2 hPa | 0 mm | - | 49 W/m² | - |
| 1777504347 | 18.33° C | 97% | 1013 hPa | 0 mm | - | 73 W/m² | - |
| 1777504040 | 18.33° C | 97% | 1012.7 hPa | 0 mm | - | 81 W/m² | - |
| 1777503738 | 18.33° C | 97% | 1012.3 hPa | 0 mm | - | 88 W/m² | - |
| 1777503435 | 18.33° C | 97% | 1012.3 hPa | 0 mm | - | 137 W/m² | - |
| 1777503130 | 18.89° C | 98% | 1012.2 hPa | 0 mm | - | 161 W/m² | - |
| 1777502828 | 18.33° C | 98% | 1012.1 hPa | 0 mm | - | 320 W/m² | - |
| 1777502525 | 18.33° C | 98% | 1012.6 hPa | 0 mm | - | 188 W/m² | - |
| 1777502222 | 18.33° C | 98% | 1012.9 hPa | 0 mm | - | 82 W/m² | - |
| 1777501919 | 18.33° C | 98% | 1012.7 hPa | 0 mm | - | 126 W/m² | - |
| 1777501616 | 18.33° C | 98% | 1012.9 hPa | 0 mm | - | 122 W/m² | - |
| 1777501313 | 18.33° C | 98% | 1012.4 hPa | 0 mm | - | 120 W/m² | - |
| 1777501011 | 18.33° C | 98% | 1012.3 hPa | 0 mm | - | 132 W/m² | - |
| 1777500708 | 18.33° C | 98% | 1012.3 hPa | 0 mm | - | 146 W/m² | - |
| 1777500405 | 18.33° C | 98% | 1012.4 hPa | 0 mm | - | 145 W/m² | - |
| 1777500101 | 18.33° C | 98% | 1012.5 hPa | 0 mm | - | 209 W/m² | - |
| 1777499798 | 18.33° C | 98% | 1012.1 hPa | 0.51 mm | - | 226 W/m² | - |
| 1777499494 | 18.33° C | 98% | 1011.9 hPa | 0 mm | - | 191 W/m² | - |
| 1777499193 | 17.78° C | 98% | 1011.9 hPa | 0 mm | - | 194 W/m² | - |
| 1777498889 | 17.78° C | 98% | 1012.2 hPa | 0 mm | - | 142 W/m² | - |
| 1777498586 | 17.78° C | 98% | 1012.4 hPa | 0 mm | - | 94 W/m² | - |
| 1777498281 | 17.78° C | 98% | 1013 hPa | 0.51 mm | - | 108 W/m² | - |
* Rain latest hour (hover to see other rain measurements)
** Current wind speed in m/s (hover to see current wind gust speed)